ONEWEB-0121, 47267

Orbit data source: Space-Track

ONEWEB-0121, 47267 is a payload satellite owned by One Web (UK) in LEO that was launched on Fri, 18 Dec 2020 UTC via a SOYUZ-2-1B launch vehicle from the Vostochny Cosmodrome (VOSTO). Payload-class satellites include a variety of spacecraft equipped with specific instruments for various scientific and technological missions. These include communications satellites like Starlink; space stations such as the ISS; scientific satellites like the Hubble; Earth observation satellites from companies like Planet Labs, Umbra, and HawkEye 360; GPS; miniature CubeSats for education and research; and military/defense satellites.

Loading next visibility...
Identifier
47267, 2020-100K
Orbit
LEO
Country
Flag of UKUK
Related business
Manufacturer
One Web
Mission
Operational Commercial Communications
Bus & Motor
ARROW, Unknown motor
Mass
148 kg wet, ~140 kg dry
Launch date (UTC)
2020-12-18 (5 years ago)
Launch vehicle
SOYUZ-2-1B
Launch site
Vostochny Cosmodrome (VOSTO)
Object type
Payload
Rocket body
Debris
Shape & HBR
Trap Box + 2 Pan, 6.7 m
Radar Cross Section
3.464 m², Large (>1 m²)

Expand to show TLE details & history
Last TLE update: 7 hours ago

TLE from 7 hours ago
0 ONEWEB-0121
1 47267U 20100K   26095.25799497  .00000189  00000-0  48974-3 0  9996
2 47267  87.9017   5.1372 0001919  83.2041 276.9305 13.12446537255073
Epoch: 2026-04-05T06:11Z
TLE epoch observation values (Epoch: 2026-04-05T06:11:30.765Z)
Latitude
-0.0001°
Longitude
78.69301°
Altitude
1,216.425 km
Speed
7.246 km/s
True Right ascension
00h 20m 32s
True Declination
0° 00' 00"
Sunlit
Object was in daylight at epoch
Visualization orbit readout
Latitude
Unknown
Longitude
Unknown
Altitude
Unknown
Speed
Unknown
Apparent Right ascension
Unknown
Apparent Declination
Unknown
Sunlit
N/A
Visualization observer readout
Local Sidereal Time
18:59:23
Azimuth
Unknown
Elevation
Unknown
Doppler factor
Unknown
Orbital elements
Apogee altitude
1,212.283 km
Perigee altitude
1,209.37 km
Semi-major axis
7,588.963 km
Eccentricity
0.00019
Inclination
87.9017°
RAAN
5.1372°
Arg. of periapsis
83.2041°
True anomaly
276.90867°
Mean anomaly
276.9305°
Eccentric anomaly
276.91959°
Mean motion
3.28299 °/min
Orbital period
109.66 mins
BSTAR
0.00048974
Loading maneuver chart data...
Computing Atmospheric mass density...
Loading historical data...
Loading historical data...
Loading historical data...
Loading historical data...
Loading historical data...
Loading historical data...
Loading historical data...

Documentation

Showing up to 5 results
|